Temp
-12 -13 -13 -13 -13 -13 -13 -13 -13 -13 -13 -13 -13 -13 -13 -13 -13 -13 -13 -13 -13 -13 -12 -12 -12 -12 -12 -12 -12 -11 -11 -11 -11 -11 -11 -12 -13 -13 -13 -13 -14 -14 -14 -15 -15 -15 -14
-13 -13 -13 -14 -14 -14 -14 -14 -14 -14 -14 -14 -13 -13 -13 -13 -14 -14 -14 -13 -13 -13 -13 -13 -13 -12 -12 -12 -12 -12 -12 -12 -11 -11 -11 -12 -12 -12 -13 -13 -13 -13 -14 -14 -14 -15 -14
-13 -14 -14 -14 -15 -15 -14 -14 -14 -14 -14 -14 -14 -14 -13 -13 -13 -14 -14 -14 -14 -13 -13 -13 -13 -13 -13 -13 -12 -12 -12 -12 -12 -12 -12 -12 -12 -12 -12 -13 -13 -13 -14 -14 -14 -14 -15
-14 -15 -15 -15 -15 -15 -15 -15 -15 -15 -15 -14 -14 -14 -14 -14 -14 -14 -14 -14 -14 -14 -14 -13 -13 -13 -13 -13 -13 -13 -13 -13 -12 -12 -12 -12 -12 -12 -12 -12 -13 -13 -14 -14 -14 -14 -14
-14 -15 -16 -16 -16 -16 -16 -15 -15 -16 -15 -15 -15 -15 -15 -15 -14 -14 -14 -14 -14 -14 -14 -14 -14 -13 -14 -14 -14 -14 -13 -13 -13 -13 -12 -12 -12 -12 -12 -12 -12 -12 -13 -13 -13 -14 -14
-15 -16 -16 -16 -17 -17 -17 -16 -16 -16 -16 -16 -15 -15 -15 -15 -15 -15 -15 -14 -14 -14 -14 -14 -14 -14 -14 -14 -14 -14 -14 -13 -13 -13 -13 -13 -13 -12 -12 -12 -12 -12 -12 -13 -13 -14 -14
-16 -17 -17 -17 -17 -17 -17 -17 -17 -17 -17 -16 -16 -16 -15 -15 -15 -15 -15 -15 -15 -14 -14 -14 -14 -14 -15 -15 -15 -15 -14 -14 -13 -13 -13 -13 -13 -13 -13 -13 -13 -13 -14 -14 -14 -14 -14
-17 -18 -18 -18 -18 -18 -18 -18 -18 -18 -17 -17 -17 -16 -16 -15 -15 -15 -16 -15 -15 -15 -14 -15 -15 -15 -15 -15 -15 -15 -15 -14 -14 -14 -14 -13 -13 -14 -14 -13 -14 -13 -14 -14 -14 -15 -15
-18 -18 -19 -19 -19 -19 -19 -19 -19 -19 -18 -18 -18 -17 -17 -16 -16 -16 -16 -16 -16 -15 -14 -15 -15 -15 -15 -15 -15 -15 -15 -15 -15 -15 -14 -14 -15 -14 -14 -14 -14 -13 -14 -14 -14 -15 -15
-19 -19 -19 -19 -19 -19 -19 -19 -19 -20 -20 -19 -19 -19 -18 -18 -18 -17 -17 -17 -17 -16 -15 -15 -15 -15 -16 -15 -15 -16 -15 -16 -15 -15 -15 -15 -15 -15 -14 -14 -14 -14 -14 -15 -15 -15 -15
-19 -19 -20 -20 -20 -20 -20 -20 -20 -21 -21 -21 -20 -21 -20 -20 -19 -19 -19 -18 -18 -17 -16 -16 -16 -16 -16 -15 -15 -16 -16 -16 -15 -16 -16 -14 -15 -15 -14 -14 -14 -14 -15 -16 -16 -16 -16
-20 -20 -20 -21 -21 -21 -21 -21 -21 -22 -22 -22 -22 -22 -22 -21 -21 -21 -21 -20 -19 -19 -18 -18 -17 -16 -17 -16 -16 -17 -17 -16 -16 -16 -16 -16 -16 -16 -16 -16 -15 -16 -16 -17 -17 -17 -15
-21 -21 -21 -21 -21 -21 -22 -22 -23 -24 -24 -24 -23 -23 -23 -23 -23 -22 -22 -22 -21 -20 -19 -19 -18 -18 -17 -17 -17 -17 -17 -16 -16 -16 -15 -16 -15 -15 -16 -16 -16 -16 -17 -17 -16 -16 -14
-21 -21 -22 -22 -22 -23 -24 -24 -25 -25 -25 -24 -24 -24 -24 -24 -23 -23 -23 -22 -22 -21 -21 -20 -20 -19 -18 -18 -17 -18 -17 -17 -17 -16 -16 -16 -16 -15 -15 -16 -15 -15 -16 -15 -15 -14 -14
-21 -22 -23 -23 -24 -25 -26 -26 -25 -25 -25 -25 -25 -25 -24 -24 -24 -24 -23 -23 -22 -22 -22 -22 -21 -20 -20 -19 -18 -18 -18 -17 -17 -17 -17 -17 -17 -16 -16 -16 -16 -16 -16 -16 -16 -16 -16
-22 -23 -24 -25 -26 -26 -26 -26 -26 -26 -25 -25 -25 -25 -25 -24 -24 -24 -23 -23 -23 -23 -23 -23 -23 -22 -21 -20 -19 -18 -18 -17 -17 -17 -18 -17 -17 -17 -17 -17 -17 -16 -16 -16 -16 -16 -15
-24 -25 -26 -26 -27 -26 -26 -26 -26 -26 -26 -26 -25 -25 -25 -25 -24 -24 -24 -24 -24 -24 -24 -23 -23 -23 -22 -21 -20 -19 -18 -18 -18 -18 -18 -18 -17 -17 -18 -17 -17 -16 -17 -17 -18 -17 -16
-25 -26 -27 -27 -27 -26 -26 -26 -26 -26 -26 -26 -26 -25 -25 -25 -25 -24 -24 -24 -24 -24 -24 -24 -24 -24 -23 -22 -21 -20 -19 -18 -19 -19 -18 -18 -18 -18 -17 -17 -17 -17 -17 -17 -16 -16 -16
-25 -26 -27 -27 -27 -27 -27 -27 -27 -27 -26 -26 -26 -26 -25 -25 -25 -24 -24 -25 -25 -24 -24 -24 -24 -24 -24 -23 -22 -21 -20 -19 -19 -19 -18 -19 -18 -18 -18 -18 -17 -17 -17 -18 -18 -18 -17
-26 -27 -27 -27 -27 -27 -27 -27 -27 -27 -27 -26 -26 -26 -26 -25 -25 -25 -25 -25 -25 -25 -25 -24 -24 -24 -24 -23 -22 -21 -21 -20 -19 -19 -19 -20 -19 -19 -18 -18 -18 -18 -18 -18 -18 -18 -17
-26 -27 -27 -27 -27 -27 -27 -27 -27 -27 -27 -27 -26 -26 -26 -26 -25 -25 -25 -25 -25 -25 -25 -25 -25 -24 -24 -23 -22 -22 -21 -21 -20 -20 -20 -20 -19 -19 -18 -19 -19 -18 -18 -18 -17 -17 -17
-27 -27 -27 -27 -27 -27 -27 -27 -27 -27 -27 -27 -27 -27 -26 -26 -26 -26 -25 -25 -25 -25 -25 -25 -25 -25 -24 -24 -23 -22 -22 -22 -21 -21 -21 -20 -20 -20 -19 -19 -18 -19 -19 -19 -18 -17 -17
-27 -27 -27 -27 -27 -27 -27 -28 -28 -28 -27 -27 -27 -27 -27 -26 -26 -26 -26 -26 -25 -25 -25 -25 -25 -25 -25 -24 -23 -22 -22 -22 -22 -22 -22 -22 -21 -20 -20 -20 -20 -19 -18 -18 -18 -18 -18
-27 -27 -27 -27 -27 -27 -27 -28 -28 -28 -28 -27 -27 -27 -27 -27 -27 -26 -26 -26 -26 -25 -26 -25 -25 -25 -25 -24 -24 -23 -22 -22 -22 -22 -22 -22 -21 -21 -21 -20 -20 -17 -18 -18 -18 -18 -18
-27 -27 -27 -27 -27 -27 -28 -28 -28 -28 -28 -28 -27 -27 -27 -27 -27 -27 -26 -26 -26 -26 -26 -26 -25 -25 -25 -25 -24 -24 -23 -22 -22 -22 -22 -22 -22 -22 -21 -21 -19 -19 -18 -19 -19 -18 -18
-27 -27 -27 -27 -27 -28 -28 -28 -28 -28 -28 -28 -28 -28 -28 -28 -28 -27 -27 -27 -27 -26 -26 -26 -26 -26 -26 -25 -25 -24 -24 -23 -22 -22 -23 -22 -22 -23 -22 -21 -19 -19 -19 -19 -20 -19 -19
-27 -27 -27 -28 -28 -28 -28 -29 -29 -29 -29 -29 -29 -29 -29 -29 -29 -29 -28 -28 -27 -27 -27 -26 -27 -26 -26 -26 -26 -25 -24 -24 -23 -22 -23 -23 -22 -22 -22 -22 -21 -21 -20 -20 -20 -19 -19
-27 -27 -28 -28 -28 -28 -29 -29 -30 -30 -31 -31 -31 -31 -31 -31 -31 -30 -30 -30 -29 -28 -28 -28 -27 -27 -27 -27 -27 -26 -25 -24 -24 -22 -22 -22 -23 -22 -22 -22 -22 -22 -21 -21 -20 -20 -20
-27 -28 -28 -28 -29 -29 -30 -31 -32 -32 -32 -32 -32 -33 -33 -32 -32 -32 -32 -31 -31 -30 -29 -29 -29 -28 -28 -28 -27 -27 -27 -25 -24 -23 -23 -22 -22 -22 -22 -22 -22 -22 -22 -22 -21 -21 -21
Height
5725 5721 5718 5714 5711 5708 5706 5703 5701 5700 5699 5699 5699 5699 5699 5699 5701 5702 5705 5706 5708 5711 5714 5717 5720 5722 5725 5728 5730 5733 5737 5740 5743 5745 5748 5749 5751 5754 5757 5761 5764 5764 5768 5771 5775 5779 5782
5716 5712 5708 5704 5701 5698 5696 5694 5691 5690 5689 5689 5689 5689 5690 5690 5692 5693 5695 5698 5700 5702 5705 5708 5712 5715 5718 5721 5723 5726 5729 5733 5736 5739 5742 5744 5746 5750 5751 5755 5759 5762 5765 5767 5769 5773 5778
5706 5702 5698 5695 5691 5688 5686 5683 5681 5679 5678 5678 5677 5678 5680 5681 5682 5683 5686 5688 5690 5693 5696 5699 5702 5706 5710 5712 5715 5719 5723 5727 5730 5732 5735 5738 5741 5744 5746 5750 5753 5758 5759 5762 5764 5768 5773
5697 5692 5688 5684 5681 5678 5676 5674 5671 5669 5668 5667 5666 5667 5668 5670 5671 5674 5675 5677 5680 5683 5686 5690 5694 5698 5703 5704 5709 5713 5716 5719 5722 5726 5729 5732 5736 5738 5740 5745 5747 5751 5753 5755 5760 5764 5767
5688 5683 5678 5675 5671 5668 5666 5663 5661 5660 5658 5657 5656 5656 5657 5658 5661 5663 5664 5666 5670 5673 5676 5681 5685 5690 5694 5698 5702 5704 5707 5710 5714 5719 5722 5726 5729 5731 5735 5738 5742 5744 5747 5750 5755 5759 5764
5679 5674 5669 5665 5661 5658 5655 5653 5651 5650 5649 5647 5647 5647 5647 5648 5650 5652 5653 5655 5659 5662 5667 5671 5675 5681 5686 5690 5694 5696 5698 5703 5707 5711 5715 5719 5723 5725 5728 5733 5736 5739 5742 5746 5750 5756 5759
5670 5664 5659 5655 5650 5646 5644 5643 5641 5640 5638 5638 5637 5637 5637 5638 5639 5641 5644 5645 5649 5652 5656 5661 5666 5671 5676 5681 5686 5689 5690 5696 5700 5704 5709 5712 5716 5719 5726 5729 5730 5734 5737 5742 5746 5749 5753
5660 5654 5649 5644 5641 5637 5634 5632 5630 5629 5628 5626 5624 5625 5625 5626 5627 5629 5631 5634 5637 5641 5645 5648 5653 5661 5664 5670 5676 5680 5682 5688 5694 5699 5702 5706 5711 5716 5717 5719 5723 5726 5730 5734 5738 5742 5745
5650 5644 5639 5634 5630 5626 5622 5620 5618 5616 5614 5613 5612 5611 5612 5612 5614 5616 5617 5621 5623 5628 5633 5639 5642 5648 5652 5659 5665 5671 5675 5680 5685 5690 5695 5700 5708 5708 5708 5712 5716 5720 5724 5728 5733 5736 5739
5640 5634 5629 5623 5619 5615 5611 5609 5606 5603 5601 5599 5597 5597 5596 5598 5601 5601 5603 5605 5609 5614 5620 5629 5630 5636 5641 5647 5654 5661 5667 5672 5675 5682 5687 5691 5695 5698 5701 5707 5711 5715 5721 5722 5725 5729 5732
5630 5624 5619 5613 5609 5605 5601 5597 5594 5591 5588 5586 5584 5583 5582 5583 5584 5586 5588 5590 5595 5602 5606 5614 5618 5622 5629 5635 5646 5650 5657 5662 5669 5674 5679 5686 5690 5693 5695 5702 5707 5711 5715 5718 5721 5722 5724
5620 5614 5609 5604 5599 5594 5590 5586 5582 5579 5576 5573 5572 5571 5571 5570 5572 5570 5571 5575 5581 5587 5593 5598 5603 5609 5616 5623 5631 5637 5644 5652 5660 5664 5668 5675 5680 5683 5689 5694 5700 5705 5706 5709 5712 5713 5712
5611 5605 5599 5593 5587 5582 5578 5573 5570 5567 5565 5563 5561 5561 5561 5560 5560 5559 5561 5565 5569 5572 5582 5584 5589 5595 5601 5610 5617 5626 5633 5640 5646 5651 5658 5666 5672 5676 5682 5686 5690 5694 5698 5700 5703 5703 5705
5601 5594 5588 5581 5576 5570 5566 5562 5560 5558 5556 5554 5551 5552 5551 5551 5551 5551 5552 5556 5559 5563 5567 5571 5579 5585 5592 5599 5602 5614 5623 5630 5638 5645 5652 5659 5664 5667 5673 5677 5682 5687 5691 5693 5693 5697 5702
5590 5582 5575 5569 5563 5560 5557 5554 5551 5549 5547 5545 5542 5543 5542 5542 5542 5543 5545 5547 5551 5552 5558 5562 5568 5574 5582 5588 5593 5601 5611 5621 5629 5637 5645 5650 5656 5663 5669 5674 5679 5679 5681 5689 5694 5695 5697
5579 5571 5564 5559 5555 5552 5549 5546 5544 5541 5539 5537 5535 5534 5534 5534 5534 5535 5537 5540 5542 5544 5547 5554 5558 5565 5572 5577 5583 5590 5600 5610 5618 5627 5635 5641 5649 5655 5662 5666 5671 5675 5681 5684 5683 5686 5692
5570 5563 5557 5552 5549 5546 5543 5540 5538 5535 5532 5530 5528 5527 5527 5527 5528 5529 5530 5532 5533 5534 5539 5546 5551 5556 5565 5570 5576 5583 5592 5600 5608 5618 5626 5631 5640 5647 5652 5655 5661 5666 5668 5673 5680 5682 5685
5562 5556 5551 5546 5543 5540 5537 5535 5532 5530 5526 5524 5523 5522 5521 5522 5523 5523 5523 5525 5527 5528 5532 5537 5544 5549 5556 5565 5570 5576 5583 5591 5598 5607 5614 5623 5630 5637 5644 5649 5656 5662 5666 5672 5674 5676 5682
5556 5550 5545 5541 5538 5535 5532 5530 5527 5524 5522 5520 5518 5517 5517 5518 5517 5518 5519 5520 5522 5524 5526 5531 5536 5542 5548 5557 5564 5570 5576 5582 5588 5599 5607 5614 5619 5628 5634 5642 5647 5651 5657 5663 5668 5674 5676
5549 5544 5541 5537 5533 5530 5528 5525 5522 5520 5518 5516 5515 5513 5512 5512 5512 5513 5514 5515 5517 5519 5521 5526 5530 5536 5542 5551 5557 5563 5570 5577 5583 5591 5598 5605 5611 5620 5627 5634 5639 5643 5648 5656 5662 5665 5670
5545 5540 5536 5532 5529 5526 5523 5520 5518 5516 5514 5513 5510 5509 5507 5507 5507 5507 5508 5510 5513 5514 5516 5519 5523 5529 5535 5544 5551 5557 5564 5571 5576 5583 5588 5595 5601 5610 5619 5626 5633 5638 5644 5649 5654 5661 5665
5541 5536 5532 5528 5524 5521 5518 5516 5513 5512 5509 5508 5506 5504 5503 5502 5501 5501 5502 5504 5506 5509 5510 5513 5517 5522 5529 5536 5542 5549 5555 5562 5568 5574 5580 5587 5594 5601 5610 5618 5623 5627 5634 5641 5648 5654 5657
5536 5532 5528 5524 5519 5516 5513 5511 5508 5507 5505 5503 5501 5500 5498 5497 5495 5496 5496 5497 5499 5502 5504 5506 5510 5514 5519 5527 5535 5541 5547 5553 5560 5566 5574 5580 5586 5592 5600 5608 5613 5615 5624 5632 5639 5645 5650
5531 5527 5523 5519 5514 5511 5508 5505 5503 5500 5499 5497 5495 5493 5492 5490 5489 5489 5488 5490 5491 5493 5497 5498 5502 5506 5512 5517 5526 5532 5540 5546 5552 5558 5565 5572 5578 5585 5591 5597 5600 5608 5619 5625 5633 5640 5644
5526 5521 5518 5514 5509 5505 5502 5498 5495 5493 5491 5488 5487 5485 5484 5482 5482 5480 5481 5481 5482 5483 5488 5491 5494 5498 5503 5508 5517 5524 5531 5537 5544 5551 5558 5564 5570 5576 5580 5587 5596 5598 5609 5615 5621 5630 5636
5520 5516 5512 5507 5503 5499 5495 5491 5487 5483 5481 5478 5476 5474 5474 5473 5472 5472 5471 5471 5473 5474 5477 5482 5485 5489 5494 5501 5506 5513 5521 5530 5534 5541 5550 5557 5562 5568 5573 5580 5584 5592 5601 5610 5617 5620 5630
5513 5509 5505 5500 5496 5491 5486 5481 5476 5472 5468 5466 5463 5462 5461 5462 5460 5460 5461 5462 5462 5464 5466 5471 5475 5480 5485 5491 5497 5504 5512 5519 5525 5533 5542 5547 5553 5559 5566 5571 5578 5585 5592 5600 5605 5616 5622
5506 5502 5497 5492 5487 5481 5475 5470 5464 5459 5454 5452 5449 5447 5448 5450 5449 5449 5450 5452 5453 5453 5456 5460 5466 5470 5477 5483 5489 5495 5501 5509 5516 5523 5532 5538 5546 5553 5559 5565 5570 5577 5583 5591 5600 5602 5614
5498 5493 5488 5482 5476 5469 5463 5457 5453 5448 5443 5439 5438 5436 5436 5438 5440 5439 5440 5443 5445 5445 5448 5450 5455 5460 5468 5474 5480 5488 5494 5497 5507 5515 5520 5530 5536 5546 5553 5558 5561 5567 5574 5583 5588 5595 5600
Wind_Speed
44 44 43 41 39 34 33 35 37 39 40 41 42 41 40 38 36 38 39 35 36 37 36 34 33 32 31 29 29 29 29 29 27 24 24 22 23 22 21 22 21 23 26 30 35 35 34
42 43 43 40 39 37 36 37 38 39 40 40 41 42 43 43 41 37 37 37 37 36 35 35 35 34 32 31 32 31 30 29 28 27 26 25 23 23 26 28 28 26 27 29 33 36 34
41 40 41 41 39 38 38 40 41 40 40 41 41 40 42 44 44 43 39 37 37 38 36 35 35 34 32 34 35 32 31 30 30 30 29 29 25 26 26 29 30 32 33 33 34 34 34
42 40 39 38 38 38 39 40 40 40 40 39 39 40 41 42 43 45 43 41 40 38 40 39 37 35 30 35 33 32 32 33 33 33 32 30 28 29 29 28 31 32 35 36 35 31 31
42 40 38 38 39 39 39 40 40 39 37 36 36 35 35 37 40 42 43 45 43 42 41 40 40 38 33 36 33 35 36 36 36 34 34 33 31 31 31 30 31 29 32 32 31 30 28
42 40 40 39 40 39 38 38 38 37 36 34 33 32 31 31 32 36 41 44 46 45 44 43 42 42 39 38 35 36 39 38 36 35 35 34 33 33 33 29 28 28 26 26 29 31 29
43 43 42 42 41 40 39 38 37 36 34 33 32 32 32 31 31 30 33 38 44 47 49 46 44 41 38 39 38 38 41 38 38 38 36 35 36 33 27 28 29 28 27 28 32 34 33
44 45 46 45 44 42 41 40 39 38 38 35 34 35 35 36 37 37 34 35 37 44 49 49 46 43 40 40 41 41 42 40 38 36 36 35 35 27 30 34 31 30 29 30 32 36 36
45 48 48 46 45 43 42 42 41 41 40 38 36 36 37 39 40 40 41 39 39 41 45 49 50 47 45 43 43 42 43 41 39 38 37 34 29 30 34 35 33 33 30 28 30 34 37
48 50 50 48 47 46 45 45 45 43 42 41 39 38 37 39 39 40 40 42 44 45 47 47 50 48 47 46 45 44 45 44 43 40 37 37 35 35 36 34 31 31 27 29 31 34 36
48 49 48 46 45 45 46 46 46 46 43 42 41 39 38 38 40 39 39 42 47 49 50 49 49 54 49 52 45 46 46 46 45 41 41 38 34 35 38 35 30 29 29 29 29 33 38
48 46 45 45 45 46 46 46 46 45 43 41 42 39 36 37 36 36 38 40 47 50 55 50 52 51 50 52 50 48 47 47 46 45 45 41 36 39 38 33 30 28 32 33 34 37 42
48 49 49 49 47 47 46 45 42 40 38 37 39 37 34 32 31 32 36 38 41 48 49 53 52 50 51 50 53 49 50 52 52 51 49 44 42 41 39 37 35 35 37 39 41 42 41
51 50 48 47 45 44 42 37 34 33 33 34 35 32 31 30 29 30 32 35 36 39 41 47 47 46 45 46 54 49 49 51 52 49 46 44 46 44 44 42 40 40 41 41 45 42 38
54 50 46 42 40 37 33 31 30 31 31 31 31 29 28 27 27 28 29 30 30 34 37 40 43 40 40 40 48 50 52 49 50 50 47 45 43 41 41 38 39 42 44 41 39 39 39
50 47 41 36 33 30 29 28 29 29 29 29 29 27 26 25 25 26 27 25 28 31 34 36 41 41 40 40 44 48 50 53 50 50 46 45 42 41 38 39 40 41 39 39 40 39 35
46 42 36 30 28 28 27 27 27 27 28 26 25 23 22 21 21 23 24 23 24 28 31 34 37 40 37 40 42 44 48 52 52 48 47 46 42 41 41 44 44 44 45 41 39 38 36
42 37 33 28 27 27 26 26 26 26 27 25 22 20 18 18 19 19 22 23 23 28 32 32 35 38 39 39 39 43 46 51 53 50 50 47 43 42 42 43 42 41 39 36 37 38 35
41 35 31 27 27 27 26 25 25 26 24 21 19 18 18 17 18 18 19 20 20 24 29 33 35 38 38 40 40 41 44 49 51 50 50 48 47 44 43 44 43 45 43 38 39 36 35
38 32 28 26 28 28 27 25 25 25 22 20 19 18 20 19 19 19 19 18 18 20 26 30 35 38 42 37 42 41 43 45 48 49 49 47 48 48 49 48 49 49 47 42 42 41 35
34 30 27 27 28 28 27 26 25 24 22 20 20 19 19 20 19 19 20 19 17 21 24 29 35 39 38 42 40 42 42 44 43 45 47 50 55 50 48 48 48 48 48 44 41 37 34
32 29 28 29 30 29 28 26 26 24 22 21 20 20 20 21 21 22 22 22 20 21 25 29 32 39 44 42 38 44 44 41 44 43 50 46 56 56 50 46 49 53 52 47 42 39 37
31 28 30 30 29 28 27 27 27 25 23 23 23 22 22 22 24 24 24 25 25 23 26 30 31 35 45 46 50 30 45 46 40 43 45 52 54 54 55 48 48 54 54 50 48 46 43
29 30 31 31 30 29 29 29 29 29 28 26 26 26 25 25 25 26 27 26 27 29 27 31 33 35 41 48 51 52 34 45 45 39 44 46 49 51 53 52 53 55 49 48 46 45 45
30 31 31 31 32 31 32 32 33 33 33 33 32 31 30 29 28 29 29 29 30 31 31 32 34 37 37 43 48 53 53 40 40 45 39 42 45 48 50 54 58 60 54 50 47 46 44
32 32 33 33 34 34 35 36 38 39 39 40 39 39 36 34 33 31 31 31 31 33 34 34 37 37 37 37 44 52 56 47 42 44 43 41 42 45 49 52 52 54 54 50 43 45 41
34 34 35 36 37 38 40 42 43 44 43 43 43 42 40 36 35 34 32 32 32 33 35 36 38 39 38 36 38 44 54 59 50 47 43 42 43 47 47 47 48 47 51 50 50 49 40
36 36 38 40 42 43 44 44 44 41 41 40 37 38 37 33 30 31 30 28 27 31 32 34 37 40 39 37 37 35 45 55 63 49 50 50 46 46 48 49 49 42 42 43 44 46 43
38 39 42 45 46 46 46 41 37 34 34 35 31 29 28 25 25 28 28 24 23 28 28 29 33 40 39 39 39 35 21 39 56 62 55 48 46 46 47 46 46 41 45 40 37 37 42
Wind_Direction
317 314 311 307 304 291 278 270 267 265 262 261 260 259 258 258 256 255 256 252 249 248 246 244 243 243 241 238 237 237 237 236 237 240 242 241 234 232 229 225 226 225 220 223 229 236 234
316 313 308 305 297 289 278 270 266 263 262 259 259 258 258 257 258 255 254 250 248 247 245 245 243 241 240 238 238 236 234 234 231 234 238 238 235 235 228 228 230 235 231 229 227 229 234
316 311 306 303 299 289 278 270 267 265 262 260 258 256 256 256 257 256 254 252 249 247 245 243 243 243 239 237 237 235 234 234 233 230 234 237 234 232 232 231 235 235 237 238 234 231 231
318 313 307 302 295 289 280 274 269 267 265 263 262 260 257 253 254 255 257 252 250 248 246 243 243 241 234 239 235 234 231 231 233 233 233 233 235 233 231 234 234 237 239 240 238 240 233
313 309 304 301 294 287 280 274 269 266 263 262 261 260 259 256 254 253 255 256 253 248 249 247 243 242 236 237 231 231 230 230 231 231 232 234 232 233 235 236 236 237 244 246 240 239 236
308 304 301 297 291 285 279 273 269 266 261 258 257 256 256 256 257 256 255 254 253 253 249 248 247 242 236 234 231 229 231 230 231 233 233 233 233 234 236 239 246 244 246 248 239 241 240
306 304 300 294 288 283 279 275 270 266 262 262 262 263 263 262 262 257 255 257 254 252 251 248 246 245 239 234 231 228 233 230 230 232 234 233 235 237 243 245 244 236 230 236 240 240 241
306 303 298 294 292 288 284 280 275 270 269 267 268 268 268 268 270 271 271 264 258 253 250 250 246 241 240 234 230 227 232 232 232 236 235 235 238 236 235 234 235 235 229 225 228 233 238
306 300 299 296 296 291 289 288 284 283 282 279 273 270 269 270 271 272 275 267 262 257 253 248 247 243 237 232 230 228 230 233 231 232 235 236 234 233 235 236 232 234 229 226 227 231 232
306 304 302 300 300 299 296 296 292 292 290 287 285 281 278 276 270 272 270 262 255 258 258 249 245 241 238 235 231 227 227 229 230 229 231 231 228 229 234 237 234 236 231 223 220 228 233
307 304 303 302 301 300 299 298 295 293 292 291 290 286 283 278 277 273 266 257 251 250 251 250 242 240 233 235 230 229 226 225 229 228 229 231 232 230 235 237 233 232 227 228 224 225 232
309 307 306 306 305 303 300 297 294 294 294 292 290 287 283 279 275 271 265 256 248 242 239 241 241 234 233 231 228 221 223 225 224 227 228 225 224 229 230 230 230 222 225 226 224 228 236
315 313 312 309 305 301 298 296 294 292 290 289 286 284 279 273 270 265 259 254 250 243 237 235 236 233 228 224 227 222 222 223 223 224 226 225 224 225 226 226 222 219 217 224 229 233 243
320 319 315 310 304 300 298 296 295 292 289 287 282 279 275 269 263 261 258 255 252 244 235 233 234 232 228 223 222 218 220 221 222 225 225 228 228 227 226 225 228 223 223 230 231 237 245
325 321 316 310 307 305 301 299 297 293 291 287 284 279 272 268 264 261 257 254 246 242 233 229 228 229 224 220 220 218 213 219 223 226 225 226 226 228 231 229 228 222 226 231 235 243 247
323 321 319 315 311 307 305 303 299 297 293 289 286 281 274 268 262 259 255 251 242 236 232 224 224 225 219 216 218 218 212 213 216 222 221 226 224 227 226 222 224 232 237 237 240 242 245
323 321 320 316 314 312 310 306 302 300 296 294 291 282 277 271 263 257 252 246 242 234 231 224 219 225 219 216 218 218 212 213 214 217 219 221 220 223 221 222 226 225 225 225 233 245 248
325 321 320 316 315 314 311 307 305 305 303 299 293 284 277 271 265 258 252 246 243 238 229 224 220 219 220 216 217 216 214 213 214 212 215 218 215 217 224 223 222 228 235 240 240 240 243
326 323 320 316 318 317 313 310 311 311 307 302 296 290 281 274 269 264 262 256 247 240 234 224 220 213 218 215 216 216 216 214 216 212 213 211 216 214 220 220 218 222 226 229 238 239 242
326 323 320 318 320 320 315 312 313 313 308 305 300 293 283 276 270 266 261 259 251 246 240 229 221 218 216 215 219 218 219 219 217 213 212 211 217 216 223 223 220 220 222 225 230 233 236
327 323 321 321 321 319 316 312 311 312 308 305 303 297 287 282 275 269 263 257 248 241 239 233 224 220 218 210 217 220 219 221 219 216 211 210 216 213 216 218 220 226 229 228 231 235 236
325 323 321 320 319 317 315 311 310 311 308 305 301 298 291 284 277 273 267 259 245 238 236 235 228 223 217 214 209 218 221 220 222 217 214 211 218 216 215 219 219 223 226 228 229 229 234
322 322 321 319 318 317 314 310 308 307 305 302 299 296 293 287 279 273 268 263 256 239 236 236 232 224 221 215 212 206 221 221 222 218 217 216 218 221 216 217 224 226 223 225 227 230 236
320 321 320 320 319 316 312 308 305 304 303 300 297 295 293 290 283 277 271 264 259 252 237 234 233 229 224 221 215 215 208 225 224 216 215 220 225 225 221 218 222 222 225 229 229 230 233
317 320 320 319 317 314 310 306 303 302 301 299 296 294 291 289 283 279 273 268 262 255 245 236 231 232 228 225 220 218 216 207 224 226 221 218 223 228 230 223 222 227 223 226 226 228 231
315 317 317 316 314 312 308 305 302 299 297 295 292 291 289 286 285 279 276 269 262 257 250 237 235 231 231 227 224 219 219 214 201 221 225 221 222 226 231 229 230 228 231 228 229 231 230
314 315 314 313 312 310 307 304 300 298 294 292 289 287 284 283 282 278 274 269 263 255 249 241 231 231 230 226 227 224 218 220 218 202 219 223 222 224 228 234 234 237 236 234 234 232 233
314 314 313 312 311 309 308 305 301 300 296 292 289 283 279 276 270 270 270 265 258 255 249 243 232 228 226 225 223 225 225 220 221 216 203 207 221 223 225 230 238 237 239 239 239 243 235
314 314 314 312 312 312 310 309 308 305 302 299 293 285 277 271 261 258 257 260 251 253 254 244 236 226 222 220 221 214 217 230 221 222 215 205 208 217 225 228 236 240 240 238 241 239 238